Theta_e
319 319 319 321 323 322 328 330 331 333 333 329 346 351 353 350 354 358 352 350 345 346 347 347 343 337 332 333 333 335 335 335 335 335 333 334 335 336 337 336 334 334 336 336 331 318 322 324 329
319 318 321 319 323 325 325 328 330 331 330 339 349 351 351 352 353 356 356 353 346 346 347 346 342 336 332 333 334 335 336 335 335 336 335 336 336 336 336 337 338 337 333 327 320 319 322 326 329
318 319 318 320 319 323 326 326 329 330 331 331 347 347 351 353 354 353 356 352 347 348 347 345 341 336 333 334 334 335 336 335 336 336 335 336 336 335 338 338 337 335 327 320 318 320 323 326 329
318 316 317 320 321 321 325 325 325 328 331 339 348 352 347 348 348 354 353 348 347 347 346 344 339 337 334 335 335 335 335 335 336 336 335 335 337 339 339 339 338 331 323 318 318 320 324 327 330
317 313 319 319 320 322 324 323 325 331 332 343 347 351 349 349 353 353 349 345 345 347 346 345 341 339 336 334 336 337 336 335 336 336 335 334 335 337 339 339 336 330 323 318 318 320 325 329 330
315 314 318 320 322 330 324 325 328 332 343 345 349 347 347 352 353 353 348 343 341 343 345 346 345 343 340 339 337 337 338 336 336 337 336 334 334 334 334 334 332 328 323 320 317 318 322 326 327
316 315 318 320 323 326 326 322 330 327 329 331 335 343 339 343 352 352 351 345 340 340 343 346 346 346 344 342 342 340 339 340 336 336 338 337 334 333 333 332 331 328 323 320 317 316 317 317 318
315 315 319 320 323 323 323 321 324 326 328 330 330 330 331 329 346 351 351 350 346 342 341 343 345 346 346 345 344 344 343 342 341 337 337 339 337 334 331 331 329 327 323 320 318 317 316 316 317
315 318 317 319 321 322 321 321 322 322 326 326 327 327 327 326 338 349 353 354 354 352 343 341 342 344 345 345 346 345 345 345 344 342 337 338 340 338 334 330 326 325 322 320 319 318 317 318 318
312 317 326 322 319 319 320 320 319 320 320 325 326 326 325 327 326 330 353 355 355 354 350 343 343 343 343 344 344 344 345 346 346 345 342 339 340 342 339 334 331 326 322 320 319 318 317 318 318
310 314 318 318 319 320 321 319 318 321 321 320 319 322 321 322 321 321 340 355 356 355 352 347 344 343 343 343 342 343 345 346 347 346 346 342 339 342 342 338 334 330 326 323 320 318 318 317 318
311 313 315 316 317 317 321 325 320 322 321 319 319 319 319 319 319 321 320 328 345 356 355 351 347 343 343 342 340 340 342 344 350 348 348 345 342 343 344 343 338 333 328 324 321 319 318 318 317
310 312 314 316 316 316 316 316 318 318 318 318 318 318 318 317 319 320 320 320 327 336 353 353 349 344 344 345 341 341 340 339 340 342 344 346 346 344 345 346 343 339 333 329 327 322 319 318 318
310 312 313 315 316 316 315 314 316 318 318 318 317 315 317 317 318 319 319 319 329 338 337 347 350 347 346 346 345 343 343 339 338 338 341 344 346 346 345 346 346 344 341 334 331 329 325 320 321
311 312 311 314 314 314 315 315 317 318 318 317 316 314 316 316 318 319 320 324 326 330 348 350 349 349 347 346 346 347 347 345 343 343 342 341 343 345 346 346 346 346 345 341 338 335 331 326 324
313 311 311 312 314 315 315 317 316 316 316 316 315 314 316 316 317 318 321 323 324 326 329 339 351 351 349 348 350 348 348 347 346 346 347 344 342 342 343 346 346 345 344 343 341 339 338 332 326
312 313 314 315 314 316 315 315 315 315 315 314 314 313 316 315 317 319 319 323 322 324 327 326 327 339 348 352 351 352 353 352 350 347 347 346 345 345 345 345 345 344 345 343 342 340 340 335 330
313 315 315 315 315 315 314 313 315 315 314 316 315 314 315 315 315 317 319 320 321 325 326 328 326 324 323 323 323 325 343 351 351 349 351 351 348 346 345 346 344 343 343 344 342 341 340 336 334
315 315 316 316 315 315 315 315 315 314 315 315 314 315 315 315 316 319 319 325 325 324 323 322 324 325 324 326 325 325 325 325 337 347 347 349 351 350 346 344 345 344 343 342 343 342 339 338 337
316 316 316 315 315 315 316 316 313 314 314 313 314 314 315 315 315 320 323 325 322 321 321 321 321 321 321 321 322 328 326 325 326 324 323 325 339 350 351 348 344 344 344 343 343 342 341 340 340
316 316 315 316 317 316 316 315 316 316 316 314 314 314 315 315 315 320 318 320 322 322 321 321 320 320 321 321 322 322 323 323 324 325 326 328 329 337 344 346 348 346 344 344 343 342 341 340 338
315 315 317 317 317 315 315 315 314 315 317 317 316 314 313 315 316 319 316 317 320 321 320 319 321 322 321 321 321 322 324 326 324 323 323 324 326 328 328 330 341 346 346 344 344 343 342 339 339
316 316 316 317 317 316 315 314 313 316 317 316 315 317 315 313 317 316 315 318 320 319 320 322 323 322 322 321 323 323 322 322 321 322 324 324 323 324 326 328 328 335 346 346 344 343 342 340 339
317 316 313 313 312 314 314 316 314 316 316 316 320 317 316 314 315 314 316 318 317 320 318 318 318 319 319 323 321 320 322 321 324 325 325 327 328 329 330 331 330 330 330 343 345 344 342 341 339
314 312 313 314 314 315 315 317 314 316 320 321 318 315 314 313 313 313 312 313 315 316 317 318 319 318 319 318 318 319 319 321 324 325 328 328 329 327 326 326 330 331 332 332 335 341 343 341 340
319 314 314 317 317 316 321 323 322 322 321 318 318 315 315 313 312 312 312 312 314 316 316 316 319 318 318 317 317 318 321 322 327 325 322 325 324 324 322 326 330 331 333 334 336 337 338 340 341
321 321 315 319 321 322 320 320 319 322 322 320 318 314 315 315 314 313 311 312 314 315 315 317 317 317 317 316 317 322 323 323 322 321 321 323 322 321 322 322 321 325 329 332 336 337 336 338 339
321 321 324 318 324 325 324 323 323 324 322 320 319 317 316 314 313 313 312 312 314 315 315 316 316 317 316 318 320 321 323 322 320 321 322 322 320 320 319 319 318 320 321 324 326 331 335 335 337
324 321 322 321 321 322 323 321 321 323 321 321 318 318 317 314 312 311 309 310 311 312 313 315 316 316 319 320 319 320 319 320 322 323 322 321 320 319 318 318 317 318 320 321 323 330 331 332 333
318 322 324 329 327 320 317 320 320 320 320 317 317 316 314 312 311 310 310 312 312 313 314 314 314 314 314 314 316 319 320 320 320 322 322 321 319 318 319 318 318 317 318 318 320 324 329 332 332
Wind_Speed
17 18 20 1 2 4 4 6 4 8 6 4 6 8 7 4 3 3 3 28 33 36 32 27 27 25 26 25 24 23 22 21 21 20 20 21 22 23 22 21 19 17 14 13 11 12 13 14 13
14 19 5 2 3 1 5 6 11 10 7 6 13 13 10 4 6 9 10 21 38 37 33 28 27 26 27 26 24 23 22 21 20 19 20 20 21 21 20 18 17 15 13 12 12 13 13 13 12
15 10 2 3 3 5 5 5 6 10 10 0 6 4 3 3 8 6 16 30 37 35 32 28 27 26 26 25 24 23 22 21 19 19 19 19 19 19 18 16 14 13 12 11 11 11 12 11 10
4 4 3 2 6 6 7 11 12 18 10 7 12 5 4 3 6 17 29 33 34 32 30 27 26 25 26 25 24 22 22 21 19 18 18 18 18 17 15 14 12 11 11 11 11 11 11 11 10
2 3 1 4 4 6 9 8 13 14 0 5 6 4 4 5 23 33 29 34 34 31 29 27 25 25 25 24 23 22 21 21 20 18 17 17 16 15 14 12 10 10 10 10 10 10 10 9 9
1 2 1 6 4 9 6 11 5 4 9 8 12 8 4 23 32 30 29 31 30 30 29 28 26 25 24 23 22 21 21 21 20 18 17 16 15 14 13 12 11 10 10 9 10 10 10 10 9
4 3 5 4 4 9 3 9 4 7 8 3 8 6 2 10 30 32 31 30 31 29 30 29 28 26 25 24 23 22 21 21 21 20 18 17 16 15 14 13 12 11 11 11 10 11 11 11 10
3 3 3 4 4 8 3 12 2 7 5 9 3 4 4 3 27 31 32 32 33 33 33 33 30 28 26 24 23 22 22 22 22 22 20 19 18 17 16 15 14 13 13 13 13 12 12 12 11
2 2 6 5 5 2 9 7 8 4 5 5 4 8 7 14 23 26 22 23 28 31 33 35 35 33 29 27 25 24 23 23 23 24 24 22 21 20 19 19 17 17 16 16 16 15 15 14 13
5 9 17 6 6 5 7 4 9 6 6 6 5 3 15 16 12 23 19 20 21 23 33 36 36 36 34 31 29 27 26 26 26 26 26 25 24 23 22 21 20 20 19 19 19 19 18 17 17
6 10 12 5 9 15 6 15 3 3 4 4 5 4 3 4 5 10 20 25 30 29 28 33 35 37 38 36 33 30 29 27 28 29 29 29 28 26 25 24 24 24 24 24 23 23 24 23 21
5 6 7 8 13 2 10 20 14 6 10 2 3 4 6 5 4 3 7 17 22 28 34 34 36 38 39 37 36 34 32 28 26 29 29 30 29 29 29 29 28 29 30 30 29 29 28 27 25
7 8 10 17 18 11 13 16 11 8 6 5 4 6 3 6 4 1 7 5 19 23 33 35 36 38 39 36 35 35 34 31 30 29 31 31 31 30 29 30 30 32 33 34 34 34 33 32 30
9 18 17 12 17 12 9 9 7 9 7 8 4 7 5 6 5 2 3 8 14 13 19 31 34 32 28 30 32 34 32 31 30 30 32 34 34 35 35 33 33 35 34 34 35 35 34 32 31
8 6 9 16 13 9 10 8 7 8 8 9 9 8 7 8 7 6 2 1 14 17 15 19 26 27 23 26 29 30 31 32 31 32 31 33 35 36 36 37 39 39 39 37 36 35 33 33 31
6 6 6 7 15 10 10 14 8 10 9 11 10 9 7 7 6 6 5 12 12 17 20 18 19 23 27 26 17 26 27 29 32 31 30 30 33 35 36 38 39 41 38 39 37 37 35 36 34
4 3 4 5 8 5 8 7 11 10 8 9 10 10 8 6 3 6 8 15 15 18 22 21 18 14 11 14 14 14 15 17 22 26 28 31 33 36 37 37 40 42 40 39 40 40 39 36 37
4 3 4 5 3 4 8 9 13 10 9 10 9 9 9 9 10 16 15 11 13 20 24 24 21 15 10 5 3 3 9 20 21 24 24 24 29 36 42 41 42 42 42 39 40 38 37 35 33
4 4 6 6 7 8 11 16 22 14 6 8 9 8 8 8 10 18 10 23 26 21 21 20 20 15 11 6 2 4 6 5 10 20 25 28 30 31 36 43 39 40 40 39 38 38 36 36 34
7 8 9 8 6 6 3 6 6 5 6 8 9 9 10 8 9 6 18 23 26 22 18 15 12 12 9 4 2 1 6 10 12 16 19 22 29 32 36 38 39 41 44 42 37 39 33 30 29
10 9 8 9 4 1 2 6 4 4 4 8 7 9 10 14 12 9 11 23 26 23 20 16 11 5 4 5 5 3 8 12 17 20 21 20 22 23 31 38 42 41 41 41 39 35 34 32 31
8 9 8 4 4 4 4 5 4 5 6 5 9 8 11 12 8 13 11 14 25 24 20 15 13 12 7 3 1 3 5 8 13 18 24 27 27 26 26 25 36 40 44 40 42 40 41 34 31
10 8 5 3 2 2 4 3 7 1 6 10 9 10 13 12 14 13 10 20 23 19 16 17 17 11 7 3 3 3 6 12 16 19 22 25 29 32 30 28 29 33 39 42 38 39 39 42 38
3 3 6 5 4 1 5 5 4 3 5 6 5 7 8 7 11 9 14 22 16 17 15 11 9 9 6 7 5 8 12 16 18 19 22 22 25 28 30 28 30 32 35 38 41 40 44 42 38
8 6 3 2 2 5 5 2 7 6 7 7 6 8 9 8 8 7 9 8 14 13 11 10 12 11 9 7 10 14 19 20 18 17 17 19 20 21 26 32 32 33 35 37 36 38 38 39 38
2 6 5 4 4 4 3 4 4 3 5 9 8 7 8 9 8 8 9 11 15 13 11 11 14 11 12 14 15 17 19 17 13 12 15 17 20 23 27 29 33 35 37 35 37 37 37 39 34
4 3 4 5 3 4 4 5 6 6 7 8 9 7 4 7 8 9 8 12 14 13 15 19 20 20 20 19 16 15 14 15 16 18 15 13 17 20 22 25 29 30 28 31 32 34 34 36 33
2 3 3 3 4 4 4 4 5 3 4 7 7 5 6 5 6 6 5 10 17 20 22 25 23 24 21 17 16 15 18 19 19 18 18 17 17 17 20 24 29 30 30 29 31 32 33 36 36
5 4 3 2 4 5 2 5 6 5 4 1 7 5 6 8 7 6 6 14 15 14 13 12 13 13 15 18 20 21 21 19 18 20 20 19 18 20 20 23 27 33 32 28 25 29 33 34 39
2 2 2 3 4 1 4 6 6 5 6 5 8 9 9 8 9 10 8 17 20 21 19 19 19 16 14 14 13 18 17 18 20 23 22 19 21 18 20 23 27 29 32 32 29 25 29 32 34
Wind_Direction
311 316 323 312 37 70 256 263 251 303 297 329 73 104 128 101 157 174 160 163 161 156 159 159 156 152 150 148 147 147 146 145 144 143 141 141 140 139 139 140 139 138 137 136 135 134 135 134 131
311 323 332 82 131 212 272 243 254 266 238 129 91 83 51 57 68 112 109 160 160 156 158 162 160 157 155 153 152 153 151 149 149 147 144 143 141 139 138 138 137 138 138 140 140 140 141 141 139
306 302 78 150 183 195 233 231 277 289 305 87 117 53 74 90 125 119 150 157 158 156 158 163 164 161 159 157 157 157 157 155 154 153 152 149 147 146 146 145 145 143 142 144 144 145 148 150 149
310 11 329 168 229 253 242 286 276 283 308 67 127 56 33 112 126 149 153 160 157 156 159 165 168 166 165 163 163 163 164 162 161 161 160 158 156 156 154 153 152 150 150 151 154 157 161 166 168
216 69 261 261 241 259 254 277 277 269 102 350 132 100 87 46 126 138 151 160 160 157 162 169 173 173 171 170 170 170 171 171 169 167 167 166 165 165 165 164 162 160 162 164 166 169 174 179 184
304 113 111 249 248 256 314 282 282 233 108 105 95 117 107 134 136 150 152 161 161 160 168 173 177 180 179 177 177 178 179 179 178 175 174 175 174 175 176 176 177 174 176 179 182 183 187 192 198
173 117 220 233 271 297 261 334 341 354 126 101 158 106 107 142 158 160 158 156 163 164 169 177 181 185 186 187 185 185 186 187 188 187 184 183 183 184 186 187 189 189 189 191 195 199 202 204 209
191 109 244 226 187 267 350 332 328 355 329 127 123 132 143 169 155 163 162 163 162 167 172 178 183 188 191 193 195 194 195 196 196 197 195 193 191 191 194 195 198 200 201 204 205 208 213 218 218
235 247 232 219 177 225 322 325 318 285 4 101 118 129 174 132 125 139 144 155 167 174 177 181 185 188 192 196 198 201 203 204 204 203 203 200 200 201 201 202 202 207 209 211 214 214 218 222 228
169 214 235 235 259 152 292 287 304 15 30 354 103 133 162 159 166 138 162 166 173 184 185 187 190 189 189 194 199 203 205 207 209 209 207 207 208 209 210 209 211 210 213 217 219 220 221 223 227
205 215 229 328 276 289 283 308 231 317 310 135 347 122 19 91 76 114 155 172 186 192 192 195 197 196 192 195 198 201 204 207 210 212 212 212 213 215 217 217 214 217 217 220 219 221 223 224 226
229 203 203 230 250 326 310 293 299 265 264 189 275 277 146 125 106 74 130 159 201 193 203 203 202 199 199 199 200 202 204 206 209 213 216 218 219 219 220 222 223 223 221 221 221 223 226 228 227
213 247 211 225 239 230 237 239 247 267 283 321 350 346 163 132 140 295 316 353 144 195 216 215 207 203 203 201 204 206 207 209 214 215 218 220 226 229 231 233 232 233 230 230 229 227 226 229 228
208 225 236 232 230 230 214 244 205 233 258 289 282 279 248 170 175 183 282 303 115 124 187 211 207 203 201 206 211 209 209 212 217 222 225 225 226 228 231 237 241 242 237 237 239 241 241 236 245
225 229 236 242 236 226 198 239 225 221 240 259 267 248 245 225 176 182 167 88 138 102 139 176 197 202 202 213 219 217 217 217 217 223 228 231 232 234 235 234 237 241 243 243 246 247 248 251 248
172 154 221 252 215 227 163 252 235 232 220 240 256 262 241 245 217 206 151 165 157 132 120 127 171 191 202 209 224 223 229 232 233 230 231 233 235 238 241 239 239 242 242 244 249 251 253 249 247
22 221 198 275 184 206 181 246 242 236 210 224 237 242 205 221 235 203 173 167 173 149 134 120 116 124 170 208 222 226 240 245 245 246 247 244 243 243 239 242 242 241 242 243 243 244 245 242 241
232 232 272 239 296 245 259 252 249 225 204 216 221 202 201 206 222 223 225 172 166 137 127 117 114 110 107 99 68 358 288 253 259 261 261 257 250 248 245 243 243 245 241 240 239 240 241 239 241
236 252 266 276 258 220 238 252 237 219 191 203 208 212 215 211 227 223 208 139 128 127 125 119 118 119 119 110 48 333 333 312 295 286 283 279 274 261 250 247 244 245 242 240 241 238 236 241 240
249 255 263 283 223 200 330 305 224 207 202 203 208 224 226 228 239 123 143 146 139 137 132 130 126 127 124 127 117 270 296 297 297 292 291 292 284 276 268 260 247 244 244 242 240 237 235 241 237
245 233 259 240 250 74 29 331 1 312 248 192 231 227 221 215 220 152 154 151 147 147 146 140 142 149 159 157 165 240 288 298 304 302 306 302 306 301 281 276 272 255 244 242 241 238 233 236 235
236 203 209 243 296 253 128 269 297 260 272 284 274 247 226 226 181 167 167 163 156 154 148 149 159 158 154 155 142 308 306 301 306 308 307 306 307 307 302 293 279 269 264 245 244 242 237 233 236
225 231 229 210 204 57 333 90 274 261 307 283 294 295 266 210 168 159 164 158 154 151 145 137 145 154 161 199 261 269 284 289 294 297 299 304 309 312 310 300 290 283 265 259 247 241 239 234 232
219 179 46 50 102 311 261 148 266 270 270 289 319 347 317 146 136 131 148 149 149 144 145 149 161 171 190 185 233 287 276 279 281 289 297 307 313 315 314 308 298 288 283 266 257 248 241 238 233
55 53 5 327 327 214 229 324 234 294 325 283 142 72 62 84 103 131 134 144 151 156 162 177 181 188 200 242 265 265 269 270 271 289 299 312 317 317 313 310 301 295 289 287 284 261 253 243 235
318 133 148 214 213 256 344 225 248 90 335 12 55 80 106 132 147 161 168 171 176 185 198 202 197 209 230 236 246 255 258 263 264 277 290 301 313 319 324 320 309 304 299 291 285 282 268 256 249
326 59 200 113 1 80 252 284 344 10 51 33 45 46 118 164 180 184 195 196 200 212 221 212 211 219 221 233 242 244 233 235 255 270 278 291 304 318 328 325 320 314 309 302 293 288 283 273 250
116 288 20 18 158 213 271 228 210 46 33 13 50 48 353 338 312 284 262 239 240 237 236 221 223 218 227 229 225 234 228 243 256 259 267 280 299 313 327 330 334 327 316 315 303 289 282 271 252
13 334 360 92 139 174 189 245 183 128 123 344 309 290 226 227 230 268 309 338 334 311 300 276 253 256 242 234 234 229 233 238 240 247 260 270 284 305 314 318 321 322 319 313 315 291 282 263 252
101 360 111 176 270 254 158 261 279 22 336 319 319 320 344 35 59 47 28 35 30 24 29 25 25 21 6 346 325 289 270 256 247 250 254 263 280 292 303 310 312 314 312 309 303 295 279 267 252